MDT,Max TemperatureF,Mean TemperatureF,Min TemperatureF,Max Dew PointF,MeanDew PointF,Min DewpointF,Max Humidity, Mean Humidity, Min Humidity, Max Sea Level PressureIn, Mean Sea Level PressureIn, Min Sea Level PressureIn, Max VisibilityMiles, Mean VisibilityMiles, Min VisibilityMiles, Max Wind SpeedMPH, Mean Wind SpeedMPH, Max Gust SpeedMPH,PrecipitationIn, CloudCover, Events, WindDirDegrees
2012-6-1,69,56,42,48,44,39,89,64,39,29.98,29.92,29.85,10,10,10,18,8,24,0.00,2,,255
2012-6-2,77,61,44,57,49,42,93,68,43,29.84,29.72,29.58,10,8,0,37,7,51,0.55,3,Fog-Rain,226
2012-6-3,71,56,40,48,42,36,89,63,37,29.93,29.88,29.79,10,10,10,13,6,15,0.00,1,,111
2012-6-4,78,63,47,59,51,43,89,65,41,29.93,29.81,29.56,10,10,10,31,10,44,0.00,0,,103
2012-6-5,83,69,55,62,55,42,90,60,29,29.53,29.46,29.30,10,10,10,32,11,39,0.00,1,,89
2012-6-6,64,54,44,48,35,30,83,56,28,30.06,29.83,29.56,10,10,10,28,16,36,0.01,1,Rain,243
2012-6-7,71,54,37,43,37,33,85,56,26,30.10,30.00,29.86,10,10,10,17,7,23,0.00,1,,98
2012-6-8,72,59,46,54,48,43,83,64,45,29.83,29.70,29.57,10,10,10,23,9,30,T,2,Rain,332
2012-6-9,56,48,40,45,39,32,93,67,41,29.80,29.71,29.65,10,10,10,22,8,26,0.10,5,Rain,268
2012-6-10,52,46,39,45,39,31,93,75,56,30.07,29.82,29.71,10,7,2,39,22,51,0.96,7,Rain,270
2012-6-11,66,56,45,47,44,42,93,71,48,30.17,30.13,30.08,10,10,9,18,6,26,0.06,5,Rain,282
2012-6-12,73,57,41,50,44,39,89,61,33,30.09,29.95,29.83,10,10,10,23,5,30,T,1,Rain,206
2012-6-13,65,55,44,50,43,36,100,70,39,29.84,29.76,29.71,10,9,2,37,13,44,0.36,4,Rain,260
2012-6-14,68,57,46,46,40,36,80,60,40,29.94,29.89,29.82,10,10,10,21,9,26,0.00,1,,286
2012-6-15,66,54,41,45,40,38,86,62,37,30.17,29.99,29.87,10,10,10,20,7,24,0.00,1,,326
2012-6-16,77,58,38,46,38,32,92,57,21,30.17,30.00,29.77,10,10,10,21,9,26,0.00,0,,224
2012-6-17,74,61,47,49,43,36,82,55,28,29.74,29.60,29.49,10,10,9,41,15,53,0.03,5,Rain,267
2012-6-18,69,56,43,44,39,35,83,57,30,29.74,29.61,29.55,10,10,9,22,9,32,0.05,3,Rain,284
2012-6-19,61,51,41,43,40,36,89,68,46,29.98,29.81,29.70,10,10,10,25,13,35,T,5,Rain,264
2012-6-20,62,52,42,47,45,41,93,71,48,30.19,30.10,29.96,10,8,2,20,9,28,0.58,6,Rain,285
2012-6-21,77,59,40,49,43,38,92,62,31,30.18,30.02,29.92,10,10,10,18,8,23,0.00,0,,93
2012-6-22,74,64,53,50,48,45,72,58,44,29.91,29.79,29.70,10,10,10,24,14,30,0.00,0,,102
2012-6-23,78,66,53,57,54,49,83,67,50,29.82,29.76,29.73,10,10,10,28,17,36,0.00,0,,106
2012-6-24,84,72,60,65,60,55,93,69,44,29.94,29.83,29.76,10,10,10,25,14,33,0.00,4,,102
2012-6-25,90,73,56,69,61,53,100,66,31,29.96,29.80,29.60,10,9,0,16,6,23,0.00,2,Fog,162
2012-6-26,88,66,44,65,53,27,100,56,12,29.75,29.61,29.43,10,10,5,33,12,44,0.00,3,,247
2012-6-27,72,57,41,41,31,24,76,47,17,30.00,29.88,29.75,10,10,10,33,14,44,0.00,0,,265
2012-6-28,82,61,39,50,41,34,79,50,21,30.04,29.97,29.89,10,10,9,13,6,17,0.00,0,,99
2012-6-29,84,66,48,52,46,40,77,52,26,29.95,29.88,29.84,10,10,10,18,7,28,0.00,0,,78
2012-6-30,84,66,48,53,48,45,86,59,31,29.99,29.91,29.80,10,10,10,20,6,24,0.00,0,,103